[[{"header":{"parameterUnit":"m.s-1","parameterCategory":1,"la1":30.2991,"la2":30.254,"lo1":-89.0895,"lo2":-89.0444,"dy":0.0017,"dx":0.0017,"nx":28,"ny":28,"refTime":"2024-07-05T21:00:00:Z","depth":0,"parameterNumber":2,"parameterNumberName":"U-component_of_WINDS"},"data":[0,0,0,0,0,0,0,0,0,0,0,0,0,0,0,0,0,0,0,0,0,0,0,0,0,0,0,0,0,0,0,0,0,0,0,0,0,0,0,0,0,0,0,0,0,0,0,0,0,0,0,0,0,0,0,0,0,0,1.542,1.5421,0,1.5546,1.5548,1.5549,1.5577,1.5576,1.5575,1.5575,1.5707,1.5711,1.5715,0,0,0,0,0,0,0,0,0,0,0,0,0,1.5203,1.5207,1.542,1.5421,1.5423,1.5546,1.5548,1.5549,1.5577,1.5576,1.5575,1.5574,1.5705,1.571,1.5716,0,0,0,0,0,0,0,0,0,0,0,0,0,1.531,1.5209,1.5419,1.5452,1.5456,1.5546,1.5548,1.555,1.5578,1.5576,1.5575,1.5574,1.5704,1.571,1.5716,1.5784,0,0,1.5736,1.5739,0,0,0,0,0,0,0,0,1.5304,1.5318,1.5445,1.5449,1.5454,1.5544,1.552,1.5628,1.5578,1.5531,1.5575,1.5573,1.5654,1.5664,1.5691,1.579,1.5796,1.5737,1.5741,1.5744,1.5746,0,0,0,0,0,0,0,1.5297,1.5313,1.547,1.5447,1.5453,1.546,1.5474,1.5541,1.5599,1.5535,1.5538,1.5552,1.5656,1.5685,1.5695,1.5798,1.5737,1.5743,1.5747,1.5749,1.5957,1.5958,0,0,0,0,0,0,1.5284,1.5307,1.5466,1.5474,1.5374,1.5465,1.548,1.5517,1.5598,1.5609,1.5553,1.5553,1.5674,1.5687,1.5699,1.5783,1.5744,1.575,1.5754,1.5955,1.5957,1.5959,0,0,0,0,0,0,1.5279,1.5297,1.5461,1.5391,1.5412,1.547,1.5511,1.552,1.5549,1.5612,1.5622,1.5572,1.5674,1.569,1.5762,1.5788,1.5753,1.5759,1.5954,1.5956,1.5958,1.5951,0,0,0,0,0,0,1.5272,1.5296,1.5322,1.5391,1.5416,1.5521,1.5513,1.5524,1.556,1.5561,1.5632,1.5642,1.5674,1.5752,1.5769,1.5796,1.5764,1.5951,1.5955,1.5957,1.595,1.5953,1.5956,0,0,0,0,0,1.5265,1.5316,1.5323,1.5342,1.5449,1.5522,1.5537,1.5571,1.5562,1.5589,1.5629,1.564,1.5782,1.5759,1.5778,1.5808,1.595,1.5954,1.5957,1.5948,1.5952,1.5956,0,0,0,0,0,0,1.5249,1.5325,1.5334,1.5409,1.5459,1.5527,1.5562,1.5575,1.5629,1.5628,1.5669,1.5685,1.5755,1.5789,1.5762,1.5877,1.5866,1.5873,1.5852,1.5857,1.5861,1.5851,1.5769,0,0,0,0,0,1.5254,1.5306,1.537,1.543,1.5455,1.5504,1.5537,1.5559,1.5613,1.5634,1.568,1.5732,1.5788,1.5825,1.588,1.5954,1.597,1.5984,1.5987,1.599,1.5996,1.6037,1.6044,1.5971,1.5971,1.5971,0,0,1.5265,1.5314,1.5344,1.5428,1.547,1.5523,1.5522,1.5579,1.5619,1.5643,1.5714,1.5749,1.5809,1.5882,1.5917,1.5913,1.6019,1.5995,1.5996,1.6001,1.6041,1.6048,1.6054,1.5973,1.5973,1.5972,0,0,1.5313,1.5355,1.5409,1.545,1.5512,1.5544,1.5557,1.5623,1.5646,1.5717,1.5736,1.5785,1.5881,1.5924,1.5958,1.6019,1.6032,1.6036,1.6054,1.6094,1.6099,1.6105,1.6126,1.6133,1.6042,1.6042,1.6042,0,1.532,1.5401,1.5435,1.5491,1.5527,1.555,1.5605,1.5643,1.572,1.5745,1.5739,1.5859,1.5902,1.5985,1.6,1.6027,1.6042,1.6029,1.6096,1.6101,1.6107,1.6128,1.6136,1.6042,1.6042,1.6042,1.6042,0,1.5406,1.5461,1.5497,1.557,1.561,1.5665,1.5708,1.5744,1.5762,1.5795,1.5866,1.5918,1.5984,1.6005,1.6024,1.609,1.6086,1.6087,1.6077,1.6113,1.6134,1.6142,1.6043,1.6042,1.6042,1.6042,0,0,1.5448,1.5538,1.5551,1.5583,1.5652,1.5696,1.5752,1.5815,1.5845,1.5897,1.5945,1.6025,1.6026,1.6065,1.6088,1.6123,1.6167,1.612,1.6122,1.6127,1.6243,1.6241,1.6249,1.6176,1.6177,1.6179,1.6237,0,1.5505,1.5604,1.5636,1.5719,1.577,1.5792,1.5841,1.5888,1.592,1.5968,1.6004,1.6059,1.6057,1.608,1.6115,1.6154,1.6191,1.6151,1.622,1.6222,1.6204,1.626,1.6259,1.6312,1.6245,1.6247,1.6248,0,1.5584,1.5635,1.5723,1.5784,1.5807,1.585,1.591,1.5956,1.601,1.603,1.6072,1.6093,1.6152,1.6137,1.6219,1.619,1.6221,1.6244,1.6247,1.6255,1.6237,1.6269,1.633,1.6337,1.6261,1.626,1.6259,0,1.5605,1.5697,1.5761,1.5788,1.5862,1.5891,1.5923,1.5976,1.6011,1.6064,1.6087,1.6146,1.6178,1.6223,1.6258,1.6245,1.6336,1.6325,1.6355,1.6354,1.6374,1.6372,1.6439,1.6393,1.6393,1.6393,1.6393,0,1.5665,1.5717,1.5772,1.5811,1.587,1.5906,1.5964,1.5998,1.6044,1.609,1.6113,1.6156,1.6201,1.625,1.6278,1.634,1.6355,1.6373,1.638,1.6371,1.6369,1.6392,1.6389,1.6395,1.6395,1.6394,1.6394,0,1.5699,1.5738,1.5809,1.5872,1.5889,1.593,1.5984,1.6023,1.6054,1.6112,1.6128,1.6178,1.6237,1.6277,1.6352,1.6371,1.6439,1.6445,1.642,1.6423,1.6451,1.6447,1.6535,1.6548,1.6493,1.6494,1.6494,0,1.5735,1.5775,1.5842,1.5874,1.5906,1.5957,1.5993,1.603,1.6066,1.613,1.6161,1.6221,1.627,1.6363,1.6406,1.6464,1.6471,1.6498,1.648,1.6469,1.6471,1.6468,1.6472,1.6501,1.6501,1.6502,1.6502,0,1.5793,1.5809,1.586,1.5916,1.5958,1.6005,1.6052,1.6077,1.6121,1.6161,1.622,1.6259,1.6334,1.6393,1.6454,1.6488,1.6502,1.6507,1.6517,1.6508,1.6492,1.65,1.6427,1.6505,1.6505,1.6505,1.6504,1.6504,1.5829,1.5865,1.5918,1.5973,1.6011,1.6054,1.6093,1.6129,1.6179,1.6243,1.6262,1.6323,1.6376,1.6459,1.6493,1.6542,1.6539,1.6554,1.6557,1.656,1.656,1.6484,1.6553,1.6553,1.6553,1.6553,1.6553,0,1.5888,1.5922,1.5972,1.6036,1.6079,1.6088,1.614,1.6175,1.6229,1.6276,1.6323,1.6391,1.6448,1.6495,1.6553,1.6583,1.6591,1.6597,1.6595,1.6603,1.6559,1.6544,1.659,1.659,1.659,1.659,1.6589,1.6589,1.5923,1.5986,1.6008,1.6089,1.6124,1.6183,1.6212,1.6251,1.6289,1.6363,1.641,1.644,1.6487,1.6548,1.6601,1.6613,1.6633,1.6638,1.6652,1.661,1.6606,1.6602,1.6588,1.6642,1.6642,1.6691,1.6692,1.6692]},{"header":{"parameterUnit":"m.s-1","parameterCategory":1,"la1":30.2991,"la2":30.254,"lo1":-89.0895,"lo2":-89.0444,"dy":0.0017,"dx":0.0017,"nx":28,"ny":28,"refTime":"2024-07-05T21:00:00:Z","depth":0,"parameterNumber":3,"parameterNumberName":"V-component_of_WINDS"},"data":[0,0,0,0,0,0,0,0,0,0,0,0,0,0,0,0,0,0,0,0,0,0,0,0,0,0,0,0,0,0,0,0,0,0,0,0,0,0,0,0,0,0,0,0,0,0,0,0,0,0,0,0,0,0,0,0,0,0,3.4471,3.447,0,3.4427,3.4426,3.4426,3.4402,3.4402,3.4402,3.4402,3.4354,3.4352,3.4351,0,0,0,0,0,0,0,0,0,0,0,0,0,3.453,3.4529,3.4471,3.447,3.4469,3.4427,3.4426,3.4425,3.4402,3.4402,3.4402,3.4402,3.4354,3.4353,3.4351,0,0,0,0,0,0,0,0,0,0,0,0,0,3.4497,3.4529,3.4471,3.4453,3.4451,3.4427,3.4426,3.4425,3.4402,3.4402,3.4402,3.4402,3.4355,3.4353,3.4351,3.4341,0,0,3.4345,3.4344,0,0,0,0,0,0,0,0,3.4499,3.4495,3.4456,3.4454,3.4452,3.442,3.4429,3.4397,3.4402,3.442,3.4402,3.4402,3.4375,3.4372,3.4364,3.4338,3.4336,3.4345,3.4344,3.4343,3.4343,0,0,0,0,0,0,0,3.4501,3.4497,3.4453,3.4455,3.4453,3.4445,3.4441,3.4423,3.4399,3.4419,3.4417,3.4412,3.4374,3.4366,3.4362,3.4335,3.4345,3.4343,3.4342,3.4341,3.4297,3.4297,0,0,0,0,0,0,3.4507,3.4499,3.4454,3.4452,3.4476,3.4444,3.4439,3.443,3.4399,3.4394,3.4412,3.4411,3.4369,3.4365,3.4361,3.4345,3.4343,3.4341,3.434,3.4297,3.4297,3.4297,0,0,0,0,0,0,3.4508,3.4503,3.4456,3.4475,3.4468,3.4444,3.4433,3.4429,3.442,3.4394,3.4389,3.4408,3.4369,3.4363,3.4345,3.4343,3.434,3.4339,3.4297,3.4297,3.4297,3.4315,0,0,0,0,0,0,3.451,3.4504,3.4501,3.4475,3.4467,3.4443,3.4433,3.4428,3.4418,3.4416,3.4389,3.4384,3.4368,3.4348,3.4344,3.434,3.4337,3.4297,3.4297,3.4297,3.4314,3.4316,3.4316,0,0,0,0,0,3.4512,3.4507,3.4501,3.4496,3.4463,3.4443,3.4439,3.4421,3.4418,3.4413,3.4396,3.4385,3.4344,3.4347,3.4341,3.4337,3.4297,3.4297,3.4297,3.4314,3.4315,3.4316,0,0,0,0,0,0,3.4533,3.4504,3.4496,3.4483,3.4466,3.4439,3.4434,3.4423,3.4406,3.4405,3.4383,3.4377,3.4361,3.4347,3.4351,3.4325,3.4319,3.4318,3.4334,3.4335,3.4336,3.434,3.4336,0,0,0,0,0,3.4536,3.4524,3.4498,3.4489,3.4481,3.4459,3.4449,3.4437,3.4418,3.4411,3.4392,3.4373,3.4356,3.4345,3.4327,3.4312,3.4305,3.4307,3.4308,3.4309,3.4308,3.4297,3.4297,3.4296,3.4297,3.4297,0,0,3.4542,3.4525,3.4518,3.4492,3.4478,3.4464,3.4453,3.4439,3.4428,3.4408,3.439,3.4376,3.4353,3.4336,3.4328,3.4324,3.4306,3.4309,3.431,3.4308,3.4297,3.4297,3.4297,3.4296,3.4296,3.4296,0,0,3.4546,3.4532,3.4522,3.4508,3.4486,3.4471,3.4469,3.4443,3.4433,3.4415,3.44,3.4385,3.4357,3.434,3.4328,3.4324,3.4313,3.4319,3.4324,3.4314,3.4314,3.4314,3.4311,3.4311,3.4318,3.4318,3.4319,0,3.4556,3.4536,3.4518,3.4505,3.4493,3.4475,3.4464,3.445,3.4424,3.4415,3.4412,3.4374,3.4358,3.4336,3.4335,3.4326,3.4322,3.4322,3.4316,3.4315,3.4315,3.4312,3.4311,3.4319,3.4319,3.4319,3.4319,0,3.4549,3.4535,3.4529,3.4504,3.4492,3.448,3.4459,3.4448,3.4436,3.4421,3.4402,3.4381,3.4359,3.4353,3.4341,3.4329,3.4327,3.432,3.4314,3.4316,3.4313,3.4312,3.4321,3.432,3.432,3.432,0,0,3.4565,3.453,3.4528,3.4516,3.449,3.4478,3.4464,3.4443,3.4433,3.4415,3.4402,3.4377,3.437,3.4356,3.4342,3.4333,3.433,3.4327,3.4326,3.4327,3.4313,3.4318,3.4317,3.4322,3.4322,3.4322,3.4314,0,3.4564,3.454,3.4523,3.4504,3.449,3.4472,3.446,3.4441,3.4427,3.4411,3.4394,3.4377,3.4369,3.4361,3.4351,3.4332,3.4326,3.4333,3.4308,3.4307,3.4314,3.4316,3.4321,3.4316,3.4313,3.4313,3.4313,0,3.4561,3.4543,3.4524,3.4498,3.4491,3.4481,3.4459,3.4445,3.4423,3.4413,3.4397,3.4383,3.4365,3.4361,3.4336,3.434,3.4329,3.4318,3.4317,3.4314,3.431,3.4311,3.4313,3.4312,3.4311,3.4311,3.4311,0,3.4573,3.4545,3.4529,3.4519,3.4489,3.4482,3.4469,3.4447,3.4435,3.4415,3.4407,3.4385,3.4373,3.4356,3.4335,3.4334,3.4311,3.4306,3.4301,3.4301,3.4297,3.4297,3.4296,3.4291,3.4291,3.4291,3.4291,0,3.4574,3.4562,3.4534,3.4525,3.451,3.449,3.4476,3.4461,3.4441,3.4427,3.441,3.4397,3.4371,3.4354,3.4337,3.4318,3.4313,3.4303,3.4298,3.4304,3.4305,3.4296,3.4295,3.429,3.429,3.429,3.429,0,3.4585,3.4566,3.4548,3.4521,3.4513,3.4504,3.448,3.4469,3.4453,3.4435,3.4429,3.4404,3.4382,3.436,3.4332,3.432,3.4301,3.4296,3.4309,3.4306,3.4302,3.4303,3.4295,3.4292,3.4289,3.4289,3.4289,0,3.4587,3.4578,3.4549,3.4539,3.4527,3.451,3.4498,3.4477,3.4464,3.4438,3.4429,3.4407,3.4388,3.4355,3.4332,3.431,3.4303,3.4301,3.4299,3.4305,3.4301,3.4302,3.43,3.4302,3.4302,3.4303,3.4303,0,3.4591,3.4582,3.4565,3.4545,3.4531,3.4513,3.4495,3.4487,3.4462,3.4449,3.4427,3.4413,3.4383,3.436,3.4335,3.4319,3.4306,3.4304,3.4301,3.4306,3.4314,3.4309,3.431,3.4304,3.4304,3.4304,3.4304,3.4303,3.4597,3.4587,3.4566,3.4547,3.4532,3.4515,3.4503,3.4485,3.4467,3.4442,3.4431,3.4409,3.4385,3.4349,3.4334,3.4315,3.4312,3.4308,3.4307,3.4307,3.4307,3.4318,3.4311,3.4311,3.431,3.431,3.431,0,3.4599,3.4585,3.4568,3.4543,3.4528,3.4518,3.4497,3.4485,3.4466,3.4446,3.4428,3.4402,3.438,3.4355,3.4331,3.4321,3.4314,3.4315,3.4315,3.4311,3.4313,3.4317,3.4321,3.4321,3.4321,3.4321,3.4321,3.4321,3.4599,3.4582,3.457,3.4544,3.4529,3.4508,3.4497,3.448,3.4464,3.4437,3.4418,3.4403,3.438,3.4354,3.4332,3.4325,3.4317,3.4319,3.4311,3.4312,3.4312,3.4311,3.4315,3.4318,3.4318,3.4311,3.4311,3.4311]}]]